Regional Weather Roundup
Issued by NWS

Home | Current Version | Previous Version | Graphics & Text | Print | Product List | Glossary On
Versions: 1 2 3 4 5 6 7 8 9 10 11 12 13 14 15 16 17 18 19 20 21 22 23 24 25 26 27 28 29 30 31 32 33 34 35 36 37 38 39 40 41 42 43 44 45 46 47 48 49 50
000
ASUS43 KOAX 242110
RWRNE

WEATHER ROUNDUP FOR NEBRASKA
NATIONAL WEATHER SERVICE OMAHA NE
400 PM CDT WED AUG 24 2016

NOTES: SATELLITE DATA IS BEING USED TO AUGMENT CLOUD COVER ABOVE
       12000 FEET.
       "FAIR" INDICATES FEW OR NO CLOUDS BELOW 12,000 FEET WITH NO
       SIGNIFICANT WEATHER AND/OR OBSTRUCTIONS TO VISIBILITY.

  * THESE STATIONS DO NOT REPORT WEATHER SUCH AS RAIN...SNOW OR FOG.

NEZ001>004-019>022-054>056-242200-
NEBRASKA PANHANDLE

CITY           SKY/WX    TMP DP  RH WIND       PRES   REMARKS
SCOTTSBLUFF    MOSUNNY   72  45  37 E9        30.16F
ALLIANCE       MOSUNNY   71  41  33 MISG      30.16F
CHADRON        CLOUDY    76  41  28 NE5       30.14F
KIMBALL        PTSUNNY   69  45  41 S14G24    30.21S
SIDNEY         CLOUDY    71  38  29 VRB6      30.20F
$$

NEZ057>060-069>072-079>082-242200-
SOUTHWEST NEBRASKA

CITY           SKY/WX    TMP DP  RH WIND       PRES   REMARKS
NORTH PLATTE   CLOUDY    78  46  32 NE7       30.13F
IMPERIAL       PTSUNNY   78  37  22 E12       30.14F
LEXINGTON      PTSUNNY   79  45  29 NE10G17   30.12S
MCCOOK         CLOUDY    77  43  29 NE16      30.12F
OGALLALA       CLOUDY    78  33  19 E10       30.15F
$$

NEZ005>010-023>029-035>040-094-242200-
NORTH CENTRAL NEBRASKA

CITY           SKY/WX    TMP DP  RH WIND       PRES   REMARKS
VALENTINE      CLOUDY    70  47  43 VRB5      30.14R
AINSWORTH      CLOUDY    69  52  55 N6        30.15S
BROKEN BOW     CLOUDY    77  50  38 NE8       30.13S
O`NEILL        PTSUNNY   79  47  32 N9        30.10F
ORD            CLOUDY    73  51  46 N6        30.11R
THEDFORD       CLOUDY    74  46  36 NE9       30.15F
$$

NEZ041-046>049-061>064-073>077-083>087-242200-
SOUTH CENTRAL NEBRASKA

CITY           SKY/WX    TMP DP  RH WIND       PRES   REMARKS
GRAND ISLAND   CLOUDY    71  57  61 N6        30.11R
AURORA         CLOUDY    71  61  70 E6        30.09S
HASTINGS       CLOUDY    68  61  78 NE9       30.09R
HEBRON         LGT RAIN  67  61  83 N3        30.06R
HOLDREGE       CLOUDY    70  52  52 NE9       30.11R
KEARNEY *      CLOUDY    70  54  56 NE8       30.10S
YORK           LGT RAIN  70  63  78 CALM      30.09S
$$

NEZ011>018-030>034-042>045-242200-
NORTHEAST NEBRASKA

CITY           SKY/WX    TMP DP  RH WIND       PRES   REMARKS
NORFOLK        CLOUDY    72  54  53 N6        30.09R
ALBION         CLOUDY    71  56  60 NE3       30.11S
BLAIR          CLOUDY    75  62  63 NW9       30.03F
FREMONT        CLOUDY    73  62  67 NW6       30.06S
TEKAMAH        CLOUDY    73  65  75 NW7       30.04R
WAYNE          CLOUDY    71  59  66 NW6       30.09R
$$

NEZ050>053-065>068-078-088>093-242200-
SOUTHEAST NEBRASKA

CITY           SKY/WX    TMP DP  RH WIND       PRES   REMARKS
LINCOLN        LGT RAIN  72  63  73 NW8       30.06R
OMAHA EPPLEY   CLOUDY    75  62  64 NW7       30.02R
BEATRICE       LGT RAIN  71  67  88 N8        30.03F
FALLS CITY     CLOUDY    80  72  76 SW7       30.00R
NEBRASKA CITY  CLOUDY    73  73  98 N12       30.01F
PLATTSMOUTH    TSTM      73  70  92 SW7       30.06R
$$

NEZ044-045-051>053-067-242200-
OMAHA AREA

CITY           SKY/WX    TMP DP  RH WIND       PRES   REMARKS
OMAHA EPPLEY   CLOUDY    75  62  64 NW7       30.02R
BLAIR          CLOUDY    75  62  63 NW9       30.03F
FREMONT        CLOUDY    73  62  67 NW6       30.06S
MILLARD        CLOUDY    77  63  61 W3        30.05R
OFFUTT AFB     TSTM      78  65  65 S8        30.04R
PLATTSMOUTH    TSTM      73  70  92 SW7       30.06R
WAHOO          FAIR      73  61  66 NW3       30.06R
$$




USA.gov is the U.S. government's official web portal to all federal, state and local government web resources and services.